Hourly Data Report for September 28, 2017

All times are specified in Local Standard Time (LST). Add 1 hour to adjust for Daylight Saving Time where and when it is observed.

PANGNIRTUNG
NUNAVUT

66°08'36.300" N
65°42'40.500" W
22.60 m
2403049
71826
WXP

Download Data

Hourly Data (September 2017)
Hourly Data Report for September 28, 2017
Temp Definition
°C
Dew Point Temp Definition
°C
Rel Hum Definition
%
Wind Dir Definition
10's deg

Wind Spd Definition
km/h
Visibility Definition
km
Stn Press Definition
kPa
Hmdx Definition


Wind Chill Definition


Weather Definition


TIME
00:00 -0.6 -2.3 88 24 9   100.21   -4 LegendNANA
01:00 -0.9 -2.2 91 25 3   100.24   -2 LegendNANA
02:00 -0.9 -2.2 91 24 3   100.26   -2 LegendNANA
03:00 -1.0 -2.3 91   0   100.28     LegendNANA
04:00 -0.9 -2.5 89 21 2   100.30   -2 LegendNANA
05:00 -0.8 -2.6 88 14 4   100.33   -2 LegendNANA
06:00 -0.7 -2.7 86 21 2   100.34   -1 LegendNANA
07:00 -0.8 -1.9 92 26 7   100.36   -3 LegendNANA
08:00 -0.8 -2.1 91 26 3   100.33   -2 LegendNANA
09:00 -0.7 -2.4 88 26 8   100.32   -4 LegendNANA
10:00 -0.4 -2.8 84 26 11   100.32   -4 LegendNANA
11:00 -0.2 -2.9 82 26 11   100.32   -4 LegendNANA
12:00 -0.5 -2.3 88 26 18   100.31   -6 LegendNANA
13:00 -0.7 -2.3 89 26 17   100.32   -6 LegendNANA
14:00 -0.8 -2.5 88 26 18   100.30   -6 LegendNANA
15:00 -0.4 -2.4 86 26 13   100.30   -5 LegendNANA
16:00 -1.6 -2.9 91 25 14   100.29   -6 LegendNANA
17:00 -1.8 -2.9 92 24 9   100.29   -5 LegendNANA
18:00 -1.7 -2.8 92 22 7   100.28   -4 LegendNANA
19:00 -1.4 -2.4 93 25 7   100.24   -4 LegendNANA
20:00 -1.5 -2.2 95 25 13   100.23   -6 LegendNANA
21:00 -1.4 -1.7 98 24 9   100.19   -5 LegendNANA
22:00 -1.4 -1.8 97 24 15   100.15   -6 LegendNANA
23:00 -0.6 -1.8 92 25 23   100.14   -6 LegendNANA

Notes on Data Quality.

Legend

  • E = Estimated
  • M = Missing
  • NA = Not Available
  • ‡ = Partner data that is not subject to review by the National Climate Archives
Date modified: